Regional Weather Roundup
Issued by NWS

Home | Current Version | Previous Version | Graphics & Text | Print | Product List | Glossary Off
Versions: 1 2 3 4 5 6 7 8 9 10 11 12 13 14 15 16 17 18 19 20 21 22 23 24 25 26 27 28 29 30 31 32 33 34 35 36 37 38 39 40 41 42 43 44 45 46 47 48 49 50

000
ASUS43 KMKX 300400
RWRWI

WISCONSIN REGIONAL WEATHER ROUNDUP
NATIONAL WEATHER SERVICE MILWAUKEE/SULLIVAN WI
1100 PM CDT TUE JUL 29 2014

NOTE: "FAIR" INDICATES FEW OR NO CLOUDS BELOW 12,000 FEET WITH NO
SIGNIFICANT WEATHER AND/OR OBSTRUCTIONS TO VISIBILITY.

WIZ001-002-006>008-014>016-023>028-300500-
NORTHWEST WISCONSIN

CITY           SKY/WX    TMP DP  RH WIND       PRES   REMARKS
SUPERIOR ARPT  RAIN      58  57  98 SW6       30.04S
ASHLAND        PTCLDY    55  54  96 W5        30.04R
HAYWARD        MOCLDY    59  58  96 CALM      30.05R
SIREN          RAIN      61  59  92 CALM      30.07F
RICE LAKE      LGT RAIN  60  58  93 NW3       30.07R
LADYSMITH      MOCLDY    59  58  94 W5        30.05F
EAU CLAIRE     MOCLDY    59  58  96 CALM      30.03F
MENOMONIE      CLOUDY    61  58  90 SW3       30.05F
NEW RICHMOND   CLEAR     62  55  77 CALM      30.07S
OSCEOLA        PTCLDY    62  56  82 CALM      30.09S
$$

WIZ003>005-009-010-017-018-300500-
NORTH CENTRAL WISCONSIN

CITY           SKY/WX    TMP DP  RH WIND       PRES   REMARKS
WOODRUFF       PTCLDY    57  52  83 N3        30.03S
RHINELANDER    PTCLDY    56  55  97 NW3       30.03S
EAGLE RIVER    PTCLDY    54  54 100 CALM      30.03R FOG
LAND O LAKES   CLEAR     52  51  95 CALM      30.05R
PHILLIPS       MOCLDY    56  56  98 CALM      30.02F
TOMAHAWK       CLOUDY    52  51  96 CALM      30.04S FOG
MEDFORD        MOCLDY    55  54  97 CALM      30.03F
MERRILL        PTCLDY    54  54 100 CALM      30.02S FOG
$$

WIZ029-030-035-036-043>047-300500-
CENTRAL WISCONSIN

CITY           SKY/WX    TMP DP  RH WIND       PRES   REMARKS
WAUSAU         PTCLDY    59  56  89 NW5       30.01R
MOSINEE        MOCLDY    59  54  82 NW6       30.03S
MARSHFIELD     CLOUDY    59  56  89 W7        30.02S
STEVENS POINT  CLOUDY    60  53  76 W7        30.03R
WAUPACA        CLOUDY    61  59  92 W3        30.01S
WAUTOMA        NOT AVBL
WISC RAPIDS    LGT RAIN  61  57  87 CALM      30.04F
CAMP DOUGLAS   NOT AVBL
$$

WIZ011>013-019>022-031-037>040-048>050-300500-
NORTHEAST WISCONSIN

CITY           SKY/WX    TMP DP  RH WIND       PRES   REMARKS
ANTIGO         PTCLDY    55  54  95 NW6       30.02S
STURGEON BAY   MOCLDY    57  55  94 NE5       29.99S
GREEN BAY      MOCLDY    60  59  96 W8        29.98S
MANITOWOC      NOT AVBL
APPLETON       MOCLDY    57  57 100 W10       30.00S
CLINTONVILLE   PTCLDY    59  55  88 CALM      30.00S
OSHKOSH        MOCLDY    59  57  93 VRB5      30.00S
$$

WIZ032>034-041-042-053>061-300500-
SOUTHWEST WISCONSIN

CITY           SKY/WX    TMP DP  RH WIND       PRES   REMARKS
LA CROSSE      CLOUDY    64  59  83 NW8       30.06R
SPARTA         LGT RAIN  60  58  96 CALM      30.07R
VIROQUA        FAIR      60  60  99 CALM      30.07R
BOSCOBEL       CLOUDY    63  60  90 W7        30.06S
PRAIRIE DU CHI PTCLDY    65  56  74 CALM      30.06S
PLATTEVILLE    MOCLDY    62  59  91 NW3       30.08R
$$

WIZ056-057-062-063-064-067-068-300500-
SOUTH CENTRAL WISCONSIN

CITY           SKY/WX    TMP DP  RH WIND       PRES   REMARKS
BARABOO/DELLS  PTCLDY    58  55  91 CALM      30.04S
LONE ROCK      NOT AVBL
WATERTOWN      CLEAR     57  57  99 CALM      30.02S
MADISON        MOCLDY    62  57  83 CALM      30.03F
MIDDLETON      FAIR      62  59  91 CALM      30.04S
MONROE         CLOUDY    61  57  88 W10       30.04S
JANESVILLE     MOCLDY    63  55  77 E5        30.03S
$$

WIZ051-052-058>065-066-070>072-300500-
SOUTHEAST WISCONSIN

CITY           SKY/WX    TMP DP  RH WIND       PRES   REMARKS
MILWAUKEE      MOCLDY    61  58  90 W3        30.00F
WAUKESHA       PTCLDY    55  54  94 SW6       30.02F
MILWAUKEE/TIMM PTCLDY    59  55  88 CALM      30.01S
RACINE         MOCLDY    60  58  92 W7        30.02F
BURLINGTON     MOCLDY    55  55  97 CALM      30.02F
KENOSHA        PTCLDY    58  57  97 SW6       30.02F
FOND DU LAC    PTCLDY    59  56  89 SW7       30.02R
SHEBOYGAN      MOCLDY    59  55  87 W3        29.99S
WEST BEND      PTCLDY    55  54  94 CALM      30.00S
JUNEAU         CLEAR     56  53  92 CALM      30.03F
$$

LSZ147-162-300500-
LAKE SUPERIOR

STATION/POSITION TIME  TEMP    WIND        PRES    WAVE
                       AIR SEA DIR/SP/G            HT/PER
                 (UTC) (F)     (DEG/KT/KT) (MB)    (FT/S)
W MID LAKE BUOY  0250   46 44  340/  6/  8 1016.8R   0
PORT WING        0300   59     200/  2/  2 1016.9S
SAXON HARBOR     0340             CALM     1017.3R
$$

LMZ867-665-643>646-300500-
LAKE MICHIGAN

STATION/POSITION TIME  TEMP    WIND        PRES    WAVE
                       AIR SEA DIR/SP/G            HT/PER
                 (UTC) (F)     (DEG/KT/KT) (MB)    (FT/S)
N MID LAKE BUOY  0250   57 54  280/  2/  2 1014.7R   0
NORTHPORT PIER   0300   62      CALM  /  1 1015.2R
SISTER BAY       0310   63     120/  2/  7   N/A
ALGOMA LAKESHORE 0321          340/  6/  7   N/A
KEWAUNEE LAKESHO 0300   60     290/  5/  7 1015.7R
SHEBOYGAN LAKESH 0300   63     260/ 12/ 15 1015.2R
PORT WASHINGTON  0300   61     270/  5/ 10 1015.9F
ATWATER BUOY     0300   62     240/  8     1016.8F
MILWAUKEE LAKESH 0300   62     230/  7/  8   N/A
S MID LAKE BUOY  0250   62 62  290/ 10/ 12 1016.0R   0
KENOSHA   LAKESH 0300   62     360/  9/ 12 1016.6R
$$

TC  - TEMPERATURE IN CELSIUS
VSB - VISIBILITY IN STATUTE MILES
WCI - WIND CHILL INDEX
HX  - HEAT INDEX



USA.gov is the U.S. government's official web portal to all federal, state and local government web resources and services.